�������l�o���
Date,Time,MP-1(��Sv/h),MP-2(��Sv/h),MP-3(��Sv/h),MP-4(��Sv/h),MP-5(��Sv/h),MP-6(��Sv/h),MP-7(��Sv/h),MP-8(��Sv/h),����,����(m/s),���J
2017/09/11,00:00,0.951,1.506,0.982,1.779,1.249,0.517,0.944,0.868,�k��,2.3,��
2017/09/11,00:10,0.951,1.509,0.981,1.780,1.251,0.515,0.941,0.868,���k��,2.3,��
2017/09/11,00:20,0.950,1.509,0.982,1.780,1.250,0.517,0.944,0.869,�k��,2.5,��
2017/09/11,00:30,0.951,1.506,0.980,1.779,1.250,0.517,0.944,0.870,���쐼,1.1,��
2017/09/11,00:40,0.949,1.510,0.981,1.780,1.251,0.515,0.945,0.870,��쐼,1.9,��
2017/09/11,00:50,0.950,1.507,0.982,1.782,1.249,0.517,0.943,0.869,�쐼,2.6,��
2017/09/11,01:00,0.951,1.507,0.981,1.780,1.249,0.515,0.943,0.867,�쐼,1.7,��
2017/09/11,01:10,0.951,1.505,0.980,1.780,1.249,0.516,0.945,0.869,���k��,0.8,��
2017/09/11,01:20,0.952,1.507,0.981,1.780,1.250,0.516,0.944,0.870,��쐼,1.4,��
2017/09/11,01:30,0.950,1.508,0.980,1.781,1.250,0.515,0.945,0.869,�쐼,1.4,��
2017/09/11,01:40,0.951,1.508,0.980,1.780,1.248,0.515,0.944,0.868,��,0.5,��
2017/09/11,01:50,0.949,1.505,0.980,1.780,1.249,0.517,0.944,0.870,-,CALM,��
2017/09/11,02:00,0.950,1.506,0.981,1.780,1.252,0.515,0.943,0.870,-,CALM,��
2017/09/11,02:10,0.950,1.508,0.981,1.780,1.248,0.515,0.943,0.868,���쓌,0.8,��
2017/09/11,02:20,0.951,1.509,0.981,1.779,1.252,0.515,0.943,0.868,��,0.6,��
2017/09/11,02:30,0.950,1.507,0.981,1.779,1.248,0.516,0.942,0.868,-,CALM,��
2017/09/11,02:40,0.951,1.506,0.980,1.781,1.248,0.517,0.942,0.868,��,1.2,��
2017/09/11,02:50,0.949,1.505,0.979,1.780,1.249,0.516,0.944,0.869,��,1.5,��
2017/09/11,03:00,0.950,1.505,0.979,1.780,1.251,0.516,0.942,0.870,�쐼,1.2,��
2017/09/11,03:10,0.950,1.508,0.981,1.782,1.251,0.516,0.943,0.869,��쓌,0.6,��
2017/09/11,03:20,0.948,1.507,0.982,1.784,1.249,0.516,0.942,0.869,�k,0.6,��
2017/09/11,03:30,0.951,1.507,0.979,1.779,1.249,0.515,0.942,0.868,�쓌,0.6,��
2017/09/11,03:40,0.950,1.507,0.983,1.779,1.249,0.515,0.943,0.868,��,0.8,��
2017/09/11,03:50,0.948,1.506,0.981,1.782,1.248,0.514,0.944,0.871,��쓌,0.6,��
2017/09/11,04:00,0.949,1.504,0.981,1.776,1.248,0.515,0.943,0.868,��,1.1,��
2017/09/11,04:10,0.947,1.506,0.980,1.777,1.250,0.516,0.945,0.870,��쓌,0.6,��
2017/09/11,04:20,0.950,1.506,0.981,1.781,1.248,0.515,0.944,0.869,�쐼,0.9,��
2017/09/11,04:30,0.951,1.507,0.979,1.780,1.247,0.515,0.943,0.870,�쐼,1.4,��
2017/09/11,04:40,0.949,1.505,0.980,1.777,1.251,0.517,0.944,0.868,�쐼,1.1,��
2017/09/11,04:50,0.950,1.504,0.981,1.779,1.249,0.514,0.945,0.867,�쐼,0.9,��
2017/09/11,05:00,0.949,1.507,0.982,1.782,1.249,0.516,0.943,0.866,-,CALM,��
2017/09/11,05:10,0.951,1.506,0.980,1.781,1.246,0.516,0.944,0.869,-,CALM,��
2017/09/11,05:20,0.950,1.504,0.979,1.780,1.248,0.515,0.943,0.869,-,CALM,��
2017/09/11,05:30,0.949,1.505,0.980,1.782,1.250,0.516,0.943,0.869,�k��,0.9,��
2017/09/11,05:40,0.947,1.504,0.980,1.780,1.250,0.514,0.944,0.869,-,CALM,��
2017/09/11,05:50,0.950,1.504,0.980,1.783,1.248,0.515,0.941,0.870,���쓌,0.9,��
2017/09/11,06:00,0.949,1.506,0.983,1.781,1.247,0.516,0.943,0.869,�쓌,0.9,��
2017/09/11,06:10,0.948,1.507,0.982,1.779,1.249,0.514,0.944,0.869,��쓌,1.2,��
2017/09/11,06:20,0.951,1.504,0.980,1.782,1.249,0.514,0.944,0.870,��,0.8,��
2017/09/11,06:30,0.950,1.506,0.977,1.781,1.249,0.516,0.942,0.870,��쓌,0.9,��
2017/09/11,06:40,0.949,1.505,0.981,1.779,1.247,0.515,0.944,0.869,��쓌,1.1,��
2017/09/11,06:50,0.948,1.505,0.982,1.779,1.250,0.513,0.944,0.869,��,1.1,��
2017/09/11,07:00,0.951,1.507,0.982,1.780,1.247,0.515,0.942,0.870,��,1.4,��
2017/09/11,07:10,0.949,1.506,0.981,1.781,1.251,0.516,0.943,0.869,��쓌,2.2,��
2017/09/11,07:20,0.951,1.507,0.983,1.782,1.247,0.514,0.943,0.869,�쓌,1.2,��
2017/09/11,07:30,0.951,1.507,0.981,1.782,1.247,0.516,0.943,0.872,�쓌,0.6,��
2017/09/11,07:40,0.951,1.506,0.982,1.783,1.249,0.515,0.944,0.872,�쐼,0.6,��
2017/09/11,07:50,0.949,1.507,0.985,1.783,1.249,0.515,0.944,0.869,��,1.1,��
2017/09/11,08:00,0.950,1.509,0.983,1.782,1.250,0.515,0.945,0.870,�쓌,1.1,��
2017/09/11,08:10,0.952,1.507,0.982,1.781,1.249,0.515,0.945,0.870,��,1.4,��
2017/09/11,08:20,0.951,1.503,0.983,1.785,1.249,0.514,0.943,0.870,���쓌,1.5,��
2017/09/11,08:30,0.951,1.505,0.983,1.786,1.249,0.512,0.943,0.869,��,2.2,��
2017/09/11,08:40,0.951,1.504,0.981,1.782,1.249,0.513,0.943,0.868,���k��,1.7,��
2017/09/11,08:50,0.950,1.509,0.982,1.786,1.249,0.515,0.940,0.868,���k��,1.5,��
2017/09/11,09:00,0.952,1.504,0.979,1.785,1.250,0.514,0.943,0.868,���k��,1.2,��
2017/09/11,09:10,0.953,1.506,0.981,1.787,1.249,0.512,0.942,0.867,���k��,1.5,��
2017/09/11,09:20,0.950,1.503,0.979,1.787,1.248,0.514,0.943,0.866,���k��,2.3,��
2017/09/11,09:30,0.951,1.505,0.978,1.783,1.246,0.513,0.942,0.868,�k�k��,2.2,��
2017/09/11,09:40,0.951,1.504,0.983,1.782,1.248,0.516,0.942,0.867,���k��,1.5,��
2017/09/11,09:50,0.950,1.504,0.981,1.784,1.245,0.514,0.944,0.867,���k��,2.0,��
2017/09/11,10:00,0.953,1.505,0.980,1.786,1.249,0.515,0.945,0.869,��,1.7,��
2017/09/11,10:10,0.954,1.506,0.982,1.786,1.249,0.514,0.943,0.868,��,1.7,��
2017/09/11,10:20,0.953,1.506,0.982,1.786,1.253,0.515,0.944,0.869,�쓌,1.2,��
2017/09/11,10:30,0.955,1.507,0.982,1.788,1.252,0.515,0.944,0.869,�쓌,2.2,��
2017/09/11,10:40,0.950,1.508,0.981,1.787,1.252,0.515,0.945,0.867,��쓌,3.5,��
2017/09/11,10:50,0.955,1.507,0.982,1.792,1.249,0.516,0.945,0.868,��,3.0,��
2017/09/11,11:00,0.955,1.505,0.984,1.786,1.250,0.516,0.945,0.869,��쓌,4.2,��
2017/09/11,11:10,0.952,1.507,0.984,1.786,1.252,0.516,0.944,0.867,��쓌,5.7,��
2017/09/11,11:20,0.953,1.509,0.982,1.787,1.250,0.514,0.945,0.868,��쓌,4.2,��
2017/09/11,11:30,0.955,1.507,0.985,1.785,1.249,0.517,0.943,0.869,��쓌,4.1,��
2017/09/11,11:40,0.953,1.511,0.983,1.786,1.252,0.514,0.944,0.867,��쓌,4.5,��
2017/09/11,11:50,0.951,1.511,0.982,1.786,1.254,0.515,0.944,0.869,��,3.0,��
2017/09/11,12:00,0.952,1.506,0.983,1.786,1.253,0.516,0.945,0.869,��,2.3,��
2017/09/11,12:10,0.956,1.510,0.982,1.786,1.254,0.518,0.945,0.869,��쓌,4.3,��
2017/09/11,12:20,0.954,1.513,0.985,1.784,1.254,0.516,0.945,0.868,��,7.1,��
2017/09/11,12:30,0.955,1.512,0.986,1.786,1.253,0.516,0.945,0.870,��,5.7,��
2017/09/11,12:40,0.956,1.512,0.984,1.790,1.252,0.516,0.947,0.869,��,7.0,��
2017/09/11,12:50,0.954,1.514,0.984,1.787,1.256,0.517,0.947,0.869,��,8.4,��
2017/09/11,13:00,0.956,1.515,0.985,1.787,1.255,0.518,0.946,0.870,��,8.8,��
2017/09/11,13:10,0.955,1.514,0.985,1.791,1.255,0.518,0.945,0.869,��,9.9,��
2017/09/11,13:20,0.958,1.512,0.986,1.790,1.254,0.518,0.946,0.870,��,8.7,��
2017/09/11,13:30,0.954,1.513,0.984,1.789,1.255,0.517,0.946,0.869,��,7.5,��
2017/09/11,13:40,0.958,1.515,0.985,1.792,1.254,0.518,0.945,0.869,��,8.2,��
2017/09/11,13:50,0.958,1.512,0.984,1.792,1.256,0.516,0.945,0.870,��,8.5,��
2017/09/11,14:00,0.956,1.514,0.984,1.792,1.254,0.518,0.946,0.870,��,11.1,��
2017/09/11,14:10,0.955,1.515,0.985,1.791,1.256,0.519,0.945,0.869,��,10.3,��
2017/09/11,14:20,0.956,1.510,0.985,1.791,1.256,0.518,0.947,0.869,��,8.7,��
2017/09/11,14:30,0.956,1.512,0.984,1.790,1.256,0.516,0.947,0.869,��,10.7,��
2017/09/11,14:40,0.956,1.512,0.984,1.787,1.254,0.517,0.947,0.870,��쓌,11.4,��
2017/09/11,14:50,0.955,1.513,0.983,1.792,1.254,0.518,0.944,0.870,��,9.9,��
2017/09/11,15:00,0.957,1.510,0.985,1.792,1.254,0.517,0.945,0.869,��,9.1,��
2017/09/11,15:10,0.955,1.513,0.983,1.791,1.255,0.515,0.946,0.868,��쓌,10.8,��
2017/09/11,15:20,0.952,1.511,0.985,1.791,1.255,0.516,0.947,0.870,��,9.8,��
2017/09/11,15:30,0.956,1.515,0.984,1.789,1.255,0.516,0.946,0.869,��,9.1,��
2017/09/11,15:40,0.954,1.515,0.985,1.791,1.256,0.515,0.946,0.871,��,8.3,��
2017/09/11,15:50,0.959,1.515,0.982,1.790,1.255,0.515,0.947,0.869,��,7.5,��
2017/09/11,16:00,0.957,1.513,0.985,1.789,1.255,0.516,0.945,0.870,��,7.3,��
2017/09/11,16:10,0.954,1.513,0.986,1.791,1.257,0.517,0.945,0.871,��,6.2,��
2017/09/11,16:20,0.955,1.516,0.984,1.789,1.255,0.517,0.947,0.873,��,6.3,��
2017/09/11,16:30,0.956,1.515,0.985,1.796,1.256,0.517,0.947,0.872,��,6.5,�L
2017/09/11,16:40,0.956,1.516,0.986,1.792,1.258,0.516,0.946,0.872,��,7.2,��
2017/09/11,16:50,0.957,1.517,0.986,1.794,1.257,0.517,0.946,0.872,��,7.3,��
2017/09/11,17:00,0.955,1.519,0.988,1.794,1.259,0.516,0.946,0.872,��,6.4,��
2017/09/11,17:10,0.955,1.518,0.988,1.792,1.259,0.516,0.946,0.874,��,7.0,��
2017/09/11,17:20,0.954,1.518,0.987,1.795,1.259,0.517,0.945,0.872,��,6.2,��
2017/09/11,17:30,0.957,1.518,0.986,1.793,1.257,0.516,0.945,0.872,��,7.0,��
2017/09/11,17:40,0.955,1.515,0.985,1.793,1.260,0.515,0.945,0.873,��,6.4,��
2017/09/11,17:50,0.954,1.517,0.986,1.790,1.257,0.517,0.947,0.872,��,6.4,��
2017/09/11,18:00,0.954,1.517,0.986,1.795,1.260,0.517,0.947,0.873,��,7.8,��
2017/09/11,18:10,0.954,1.517,0.987,1.794,1.259,0.517,0.946,0.873,��,7.3,��
2017/09/11,18:20,0.952,1.518,0.987,1.793,1.256,0.518,0.947,0.872,��,7.9,��
2017/09/11,18:30,0.954,1.517,0.986,1.794,1.258,0.518,0.947,0.872,��,7.8,��
2017/09/11,18:40,0.956,1.517,0.986,1.791,1.256,0.518,0.947,0.871,��,6.4,�L
2017/09/11,18:50,0.954,1.518,0.986,1.793,1.256,0.517,0.947,0.870,��,6.6,�L
2017/09/11,19:00,0.953,1.518,0.985,1.793,1.258,0.519,0.945,0.872,��,8.0,�L
2017/09/11,19:10,0.952,1.517,0.985,1.794,1.259,0.517,0.948,0.872,��,7.1,�L
2017/09/11,19:20,0.955,1.518,0.987,1.794,1.258,0.518,0.948,0.871,��,8.1,�L
2017/09/11,19:30,0.955,1.520,0.987,1.792,1.257,0.517,0.945,0.873,��,8.0,�L
2017/09/11,19:40,0.956,1.518,0.987,1.792,1.258,0.518,0.947,0.872,��,7.3,�L
2017/09/11,19:50,0.953,1.518,0.987,1.792,1.258,0.518,0.947,0.871,��,6.6,�L
2017/09/11,20:00,0.956,1.519,0.988,1.792,1.257,0.517,0.945,0.872,�k��,6.4,��
2017/09/11,20:10,0.955,1.520,0.989,1.792,1.260,0.517,0.946,0.870,��,7.8,��
2017/09/11,20:20,0.956,1.518,0.988,1.794,1.260,0.518,0.947,0.872,��,8.5,��
2017/09/11,20:30,0.955,1.521,0.988,1.794,1.258,0.516,0.946,0.872,��,7.6,�L
2017/09/11,20:40,0.955,1.520,0.989,1.792,1.259,0.517,0.947,0.869,��,8.0,�L
2017/09/11,20:50,0.956,1.518,0.988,1.793,1.258,0.517,0.946,0.873,��,8.5,��
2017/09/11,21:00,0.954,1.521,0.987,1.791,1.256,0.517,0.946,0.869,��,9.3,��
2017/09/11,21:10,0.956,1.519,0.988,1.791,1.258,0.516,0.948,0.871,��,7.0,�L
2017/09/11,21:20,0.955,1.516,0.986,1.796,1.257,0.516,0.947,0.873,��쓌,7.0,�L
2017/09/11,21:30,0.954,1.517,0.986,1.791,1.256,0.517,0.948,0.871,��,7.5,�L
2017/09/11,21:40,0.954,1.514,0.987,1.790,1.256,0.516,0.945,0.871,��,8.3,�L
2017/09/11,21:50,0.955,1.513,0.986,1.791,1.252,0.516,0.945,0.871,��,8.6,�L
2017/09/11,22:00,0.948,1.506,0.986,1.790,1.250,0.517,0.944,0.871,��,8.4,�L
2017/09/11,22:10,0.950,1.506,0.984,1.789,1.250,0.518,0.946,0.869,��,8.5,�L
2017/09/11,22:20,0.949,1.503,0.984,1.786,1.246,0.516,0.945,0.870,��,9.5,�L
2017/09/11,22:30,0.947,1.504,0.983,1.786,1.245,0.516,0.945,0.870,��,8.8,�L
2017/09/11,22:40,0.949,1.504,0.983,1.786,1.246,0.516,0.944,0.870,��,8.0,�L
2017/09/11,22:50,0.948,1.501,0.982,1.784,1.246,0.517,0.942,0.869,��,7.1,�L
2017/09/11,23:00,0.945,1.496,0.979,1.783,1.240,0.516,0.941,0.870,��,7.5,�L
2017/09/11,23:10,0.942,1.495,0.976,1.780,1.240,0.515,0.941,0.868,��,8.2,�L
2017/09/11,23:20,0.941,1.492,0.975,1.780,1.237,0.516,0.940,0.868,��,9.6,�L
2017/09/11,23:30,0.940,1.490,0.973,1.777,1.232,0.515,0.940,0.867,��,8.4,�L
2017/09/11,23:40,0.941,1.487,0.975,1.776,1.233,0.514,0.939,0.866,��,8.8,�L
2017/09/11,23:50,0.939,1.485,0.972,1.773,1.230,0.515,0.937,0.865,��쓌,9.2,�L
